Location: Unspecified
(0.0000°N, 0.0000°E)
Time: 17:52:06
(UTC+00:00)

STARLINK 1043 - Pass Details

Date: 23 January 2020
Orbit: 548 x 551 km, 53.0° (Epoch: 17 January)

Event Time Altitude Azimuth Distance (km) Brightness Sun altitude
Exits shadow 05:23:20 14° 265° (W) 1,592 5.4 -11.4°
Maximum altitude 05:25:35 20° 304° (NW) 1,286 4.9 -10.8°
Drops below altitude 10° 05:28:39 10° 353° (N) 1,807 6.0 -10.1°
Sets 05:31:19 0° 10° (N) 2,697 7.0 -9.5°
